Total_Precipitation_Accumulation
0.79 0.86 0.79 0.74 0.67 0.66 0.65 0.50 0.46 0.42 0.32 0.30 0.28 0.28 0.30 0.26 0.28 0.34 0.45 0.50 0.49 0.59 0.71 0.73 0.67 0.59 0.58 0.56 0.55 0.53 0.49 0.47 0.43 0.39 0.37 0.35 0.33 0.32 0.30 0.29 0.28 0.25 0.23
1.00 1.05 0.99 1.00 0.96 0.96 1.02 0.86 0.72 0.71 0.61 0.57 0.52 0.52 0.52 0.50 0.50 0.54 0.65 0.62 0.55 0.57 0.70 0.80 0.81 0.82 0.82 0.76 0.69 0.61 0.57 0.57 0.54 0.53 0.50 0.46 0.43 0.40 0.38 0.37 0.34 0.31 0.28
1.15 1.21 1.31 1.31 1.27 1.24 1.27 1.27 1.14 1.10 1.00 0.94 0.84 0.68 0.66 0.75 0.83 0.78 0.80 0.85 0.74 0.69 0.67 0.72 0.78 0.86 0.89 0.89 0.90 0.83 0.75 0.69 0.66 0.63 0.60 0.56 0.55 0.53 0.50 0.46 0.42 0.40 0.39
1.31 1.48 1.55 1.56 1.54 1.51 1.58 1.63 1.57 1.41 1.31 1.20 1.10 0.93 0.85 0.87 0.97 1.07 1.04 1.09 1.16 1.04 0.90 0.82 0.80 0.85 0.90 0.94 0.97 0.94 0.88 0.81 0.76 0.74 0.71 0.66 0.66 0.63 0.56 0.52 0.50 0.47 0.45
1.64 1.73 1.82 1.90 1.95 1.99 1.99 1.93 1.92 1.70 1.63 1.55 1.37 1.25 1.10 1.06 1.08 1.09 1.14 1.10 1.11 1.08 1.04 0.93 0.85 0.83 0.89 0.97 0.97 0.98 0.97 0.94 0.89 0.83 0.76 0.70 0.71 0.70 0.66 0.62 0.59 0.54 0.49
2.26 2.34 2.31 2.33 2.35 2.41 2.30 2.28 2.26 2.06 1.89 1.84 1.55 1.38 1.27 1.21 1.18 1.13 1.10 1.05 0.98 0.89 0.90 0.92 0.92 0.85 0.86 0.89 0.92 1.00 1.04 1.06 1.02 0.95 0.91 0.88 0.84 0.77 0.69 0.66 0.62 0.59 0.59
3.26 3.26 3.17 3.06 2.91 2.77 2.62 2.55 2.39 2.22 2.05 1.95 1.80 1.49 1.18 1.03 1.05 1.02 0.98 1.00 0.99 0.90 0.86 0.87 0.84 0.78 0.78 0.81 0.81 0.83 0.90 1.01 1.06 1.06 1.05 0.96 0.84 0.76 0.70 0.68 0.65 0.63 0.63
4.19 4.29 4.17 3.95 3.76 3.38 2.95 2.63 2.42 2.29 2.09 2.02 1.92 1.81 1.41 1.12 0.92 0.79 0.81 0.84 0.85 0.87 0.80 0.75 0.71 0.71 0.71 0.72 0.71 0.72 0.74 0.82 0.97 1.09 1.11 1.02 0.92 0.84 0.79 0.77 0.75 0.73 0.72
4.43 4.60 4.58 4.31 3.91 3.35 2.84 2.64 2.52 2.35 2.19 2.09 1.94 1.92 1.64 1.36 1.07 0.81 0.70 0.65 0.66 0.64 0.62 0.61 0.60 0.62 0.61 0.59 0.58 0.64 0.68 0.72 0.84 0.95 0.94 0.86 0.82 0.82 0.82 0.81 0.79 0.78 0.78
4.36 4.28 4.15 3.76 3.29 2.93 2.65 2.54 2.48 2.27 2.21 2.06 1.95 1.71 1.50 1.31 1.14 0.92 0.75 0.64 0.58 0.53 0.50 0.49 0.49 0.49 0.50 0.48 0.51 0.57 0.60 0.61 0.67 0.69 0.70 0.68 0.68 0.73 0.78 0.82 0.83 0.83 0.85
3.71 3.37 3.04 2.80 2.64 2.42 2.20 2.08 2.02 1.94 1.81 1.69 1.66 1.60 1.50 1.32 1.08 0.89 0.80 0.72 0.67 0.60 0.52 0.48 0.46 0.45 0.44 0.45 0.48 0.58 0.60 0.55 0.53 0.51 0.49 0.49 0.51 0.54 0.57 0.65 0.72 0.78 0.83
3.01 2.63 2.44 2.21 2.06 1.87 1.64 1.49 1.44 1.46 1.48 1.51 1.52 1.48 1.42 1.35 1.21 1.07 0.94 0.83 0.80 0.77 0.66 0.59 0.56 0.52 0.50 0.51 0.57 0.68 0.55 0.49 0.46 0.44 0.42 0.41 0.42 0.45 0.49 0.56 0.65 0.74 0.84
2.71 2.29 1.96 1.78 1.56 1.38 1.28 1.20 1.16 1.15 1.20 1.27 1.36 1.36 1.33 1.29 1.22 1.18 1.15 1.09 1.01 0.93 0.81 0.73 0.69 0.65 0.61 0.59 0.63 0.67 0.49 0.46 0.41 0.37 0.35 0.36 0.37 0.40 0.44 0.48 0.53 0.59 0.66
2.15 1.85 1.45 1.16 1.00 0.89 0.84 0.85 0.88 0.92 0.95 0.99 1.07 1.12 1.13 1.11 1.11 1.12 1.13 1.15 1.21 1.14 0.95 0.85 0.83 0.78 0.70 0.64 0.69 0.66 0.46 0.48 0.41 0.36 0.33 0.32 0.31 0.32 0.34 0.37 0.39 0.41 0.44
1.42 1.19 0.96 0.80 0.71 0.68 0.64 0.63 0.64 0.67 0.70 0.76 0.83 0.92 0.98 1.00 0.99 1.01 1.05 1.06 1.08 1.14 1.08 0.93 0.85 0.78 0.68 0.61 0.67 0.49 0.38 0.45 0.39 0.34 0.32 0.30 0.28 0.27 0.28 0.29 0.31 0.34 0.36
0.83 0.75 0.65 0.61 0.57 0.52 0.51 0.51 0.50 0.51 0.59 0.62 0.65 0.71 0.81 0.88 0.91 0.95 0.98 0.96 0.90 0.88 0.92 0.84 0.75 0.69 0.64 0.58 0.60 0.42 0.37 0.41 0.32 0.28 0.26 0.25 0.23 0.21 0.21 0.23 0.26 0.29 0.29
0.60 0.57 0.52 0.49 0.49 0.48 0.47 0.44 0.44 0.42 0.46 0.56 0.65 0.69 0.73 0.75 0.77 0.77 0.78 0.79 0.82 0.84 0.90 0.87 0.76 0.68 0.62 0.55 0.49 0.40 0.34 0.32 0.29 0.27 0.25 0.23 0.20 0.18 0.18 0.20 0.21 0.22 0.22
0.49 0.48 0.46 0.45 0.45 0.47 0.48 0.45 0.42 0.42 0.42 0.45 0.50 0.52 0.54 0.54 0.57 0.59 0.61 0.62 0.66 0.70 0.74 0.78 0.72 0.61 0.55 0.47 0.41 0.38 0.29 0.24 0.23 0.22 0.21 0.19 0.17 0.17 0.16 0.15 0.14 0.13 0.12
0.45 0.43 0.42 0.42 0.43 0.43 0.43 0.42 0.39 0.38 0.37 0.36 0.35 0.34 0.35 0.36 0.39 0.41 0.42 0.44 0.45 0.46 0.50 0.53 0.53 0.47 0.42 0.37 0.36 0.33 0.28 0.29 0.20 0.18 0.16 0.14 0.13 0.12 0.10 0.08 0.08 0.08 0.07
0.43 0.44 0.42 0.41 0.38 0.34 0.32 0.30 0.28 0.27 0.26 0.27 0.26 0.23 0.23 0.24 0.27 0.30 0.31 0.33 0.34 0.38 0.41 0.44 0.43 0.40 0.35 0.29 0.36 0.35 0.29 0.27 0.22 0.14 0.14 0.12 0.10 0.07 0.06 0.06 0.06 0.05 0.05
0.35 0.33 0.30 0.27 0.23 0.19 0.17 0.16 0.16 0.17 0.17 0.19 0.19 0.18 0.19 0.23 0.26 0.26 0.25 0.28 0.33 0.37 0.38 0.38 0.36 0.33 0.30 0.33 0.35 0.32 0.29 0.24 0.20 0.16 0.20 0.20 0.21 0.23 0.22 0.16 0.10 0.06 0.04
0.25 0.20 0.15 0.15 0.15 0.13 0.13 0.13 0.13 0.14 0.15 0.16 0.18 0.19 0.19 0.21 0.22 0.22 0.24 0.29 0.36 0.38 0.37 0.36 0.35 0.35 0.32 0.34 0.35 0.32 0.32 0.33 0.33 0.24 0.28 0.26 0.25 0.28 0.29 0.27 0.18 0.10 0.06
0.20 0.17 0.13 0.10 0.10 0.11 0.11 0.12 0.13 0.14 0.16 0.17 0.17 0.18 0.17 0.16 0.18 0.18 0.20 0.24 0.26 0.26 0.28 0.34 0.39 0.38 0.39 0.41 0.42 0.40 0.41 0.44 0.42 0.34 0.41 0.39 0.28 0.28 0.22 0.18 0.15 0.11 0.09
0.22 0.20 0.17 0.14 0.12 0.10 0.08 0.08 0.09 0.11 0.13 0.15 0.15 0.16 0.17 0.19 0.18 0.17 0.15 0.16 0.21 0.24 0.23 0.24 0.32 0.33 0.32 0.33 0.37 0.40 0.43 0.46 0.47 0.45 0.49 0.49 0.31 0.27 0.22 0.27 0.23 0.15 0.11
0.18 0.17 0.16 0.17 0.17 0.13 0.07 0.06 0.07 0.09 0.12 0.13 0.13 0.13 0.15 0.19 0.19 0.17 0.16 0.20 0.25 0.28 0.17 0.15 0.19 0.25 0.26 0.29 0.30 0.37 0.52 0.65 0.61 0.46 0.47 0.52 0.41 0.34 0.29 0.31 0.27 0.20 0.15
0.17 0.14 0.12 0.13 0.14 0.14 0.07 0.06 0.08 0.08 0.11 0.10 0.12 0.14 0.14 0.13 0.13 0.11 0.13 0.21 0.29 0.29 0.27 0.31 0.38 0.41 0.42 0.49 0.46 0.48 0.63 0.70 0.67 0.63 0.52 0.54 0.51 0.47 0.44 0.32 0.31 0.30 0.28